{"data":{"norad_id":63468,"intl_designator":"2025-070J","name":"STARLINK-33720","alt_names":[],"object_type":"PAYLOAD","status":"ACTIVE","operator":null,"country":"US","launch_date":"2025-04-06","launch_site_code":"AFETR","launch_vehicle":null,"mission":null,"orbit_class":"UNKNOWN","rcs_meters":null,"size_class":null,"mass_kg":null,"dimensions":null,"purposes":["comms"],"wikipedia_slug":null,"has_3d_model":false,"image_url":null,"decayed_at":null,"tle_current":{"epoch":"2026-09-20T15:47:57.579648Z","epoch_age_seconds":142073,"freshness":"FRESH","line1":"1 63468U 25070J   26263.65830532  .00011833  00000+0  43878-3 0  9990","line2":"2 63468  43.0019 238.7848 0001402 277.5825  82.4867 15.27585532 82793","mean_motion":15.27585532,"eccentricity":0.0001402,"inclination_deg":43.0019,"raan_deg":238.7848,"arg_perigee_deg":277.5825,"mean_anomaly_deg":82.4867,"bstar":0.00043878,"rev_number":8279,"period_min":94.26640733594,"perigee_km":482.07059532323,"apogee_km":483.9944672598,"semimajor_km":6861.1695312915,"source":"CELESTRAK","updated_at":"2026-09-21T09:00:35.008843Z"}}}